Location: Famechon
(49.7599°N, 2.0615°E)
Time: 10:42:55
(UTC+00:00)

Genesis I - Pass Details

Date: 03 February 2023
Orbit: 466 x 516 km, 64.5° (Epoch: 23 March)

Event Time Altitude Azimuth Distance (km) Brightness Sun altitude
Rises 18:48:40 0° 209° (SSW) 2,641 7.3 -19.4°
Reaches altitude 10° 18:50:51 10° 207° (SSW) 1,761 6.2 -19.7°
Maximum altitude 18:54:45 62° 126° (SE) 595 3.2 -20.4°
Enters shadow 18:54:51 62° 117° (ESE) 597 3.1 -20.4°
